Location: Shenandoah County Park
(38.9356°N, 78.4524°W)
Time: 15:07:21
(UTC-05:00)

Vanguard 2 Rocket - Pass Details

Date: 05 December 2023
Orbit: 555 x 3309 km, 32.9° (Epoch: 03 March)

Event Time Altitude Azimuth Distance (km) Brightness Sun altitude
Rises 21:21:43 0° 283° (WNW) 7,222 12.1 -51.7°
Reaches altitude 10° 21:27:56 10° 273° (W) 5,989 11.5 -52.9°
Maximum altitude 21:41:12 27° 225° (SW) 3,907 10.1 -55.4°
Enters shadow 21:42:33 27° 217° (SW) 3,821 10.0 -55.6°
Drops below altitude 10° 21:50:45 10° 174° (S) 4,212 - -57.1°
Sets 21:54:13 0° 161° (SSE) 4,813 - -57.7°
